Regional Weather Roundup
Issued by NWS

Home | Current Version | Previous Version | Text Only | Print | Product List | Glossary On
Versions: 1 2 3 4 5 6 7 8 9 10 11 12 13 14 15 16 17 18 19 20 21 22 23 24 25 26 27 28 29 30 31 32 33 34 35 36 37 38 39 40 41 42 43 44 45 46 47 48 49 50
000
ASUS43 KDMX 200601
RWRIA

WEATHER ROUNDUP FOR IOWA
NATIONAL WEATHER SERVICE DES MOINES IA
1200 AM CST TUE FEB 20 2018

NOTE: "FAIR" INDICATES FEW OR NO CLOUDS BELOW 12,000 FEET WITH NO
SIGNIFICANT WEATHER AND/OR OBSTRUCTIONS TO VISIBILITY.

* - THESE STATIONS ARE NOT NWS STATIONS...THUS NOT UNDER NWS
QUALITY CONTROL.  THEY ALSO DO NOT REPORT WEATHER SUCH
AS PRECIPITATION OR FOG.

IAZ001>003-012>014-020>022-031>034-043>046-200700-
   NORTHWEST IOWA

CITY           SKY/WX    TMP DP  RH WIND       PRES   REMARKS
CARROLL *      MIX PCPN  23  23 100 MISG      29.80S
CHEROKEE *     CLOUDY    19  19  98 N7        29.82F FOG     WCI  10
DENISON *      LGT RAIN  23  23 100 N6        29.83F WCI  16
LE MARS *      FLURRIES  18  16  93 MISG      29.84F
ORANGE CITY *  LGT SNOW  18  18 100 N9        29.81F WCI   6
SHELDON *      LGT SNOW  16  16 100 MISG      29.80F
SIOUX CITY     CLOUDY    18  16  92 N13       29.84F WCI   5
6HR MIN TEMP:  18; 6HR MAX TEMP:  20;

SPENCER        LGT SNOW  19  16  88 N14       29.82F FOG     WCI   6
6HR MIN TEMP:  19; 6HR MAX TEMP:  21;

STORM LAKE *   LGT SNOW  19  18  93 MISG      29.79F
$$

IAZ055>058-069>071-079>083-090>094-200700-
   SOUTHWEST IOWA

CITY           SKY/WX    TMP DP  RH WIND       PRES   REMARKS
ATLANTIC *     MIX PCPN  25  25 100 NW7       29.85R WCI  17
AUDUBON *      LGT SNOW  25  21  86 CALM      29.80S
CLARINDA *     CLOUDY    27  27 100 N6        29.85S FOG     WCI  20
COUNCIL BLFS * LGT RAIN  23  23 100 N6        29.82S WCI  16
CRESTON *      CLOUDY    27  25  93 N5        29.81S FOG     WCI  21
HARLAN  *      LGT RAIN  23  23 100 N3        29.86R
LAMONI         CLOUDY    28  27  96 NE3       29.81S FOG
6HR MIN TEMP:  28; 6HR MAX TEMP:  32; 6HR PCP:  0.01;

RED OAK *      CLOUDY    25  25 100 VRB3      29.85R
SHENANDOAH *     N/A     25  25 100 N7        29.84F WCI  17
$$

IAZ047>049-059>061-072>074-084-200700-
   CENTRAL IOWA

CITY           SKY/WX    TMP DP  RH WIND       PRES   REMARKS
AMES           CLOUDY    28  27  96 SW3       29.81S FOG
6HR MIN TEMP:  28; 6HR MAX TEMP:  31;

ANKENY *       CLOUDY    28  27  93 NW3       29.82F FOG
BOONE *        CLOUDY    27  27 100 MISG      29.79R FOG
CHARITON *     CLOUDY    28  28 100 CALM      29.81F
DES MOINES     FRZ RAIN  27  26  96 NW3       29.81F
6HR MIN TEMP:  27; 6HR MAX TEMP:  31; 6HR PCP: TRACE;

GRINNELL*      FOG       31  30  99 CALM      29.81S VSB 1
KNOXVILLE *    HVY RAIN  28  28 100 CALM      29.79F
MARSHALLTOWN   CLOUDY    31  31 100 CALM      29.79F FOG
6HR MIN TEMP:  31; 6HR MAX TEMP:  34;

NEWTON *       FOG       30  30 100 CALM      29.80F VSB 3/4
PELLA *        CLOUDY    30  29  98 CALM      29.83F FOG
$$

IAZ004>006-015-016-023>025-035-036-200700-
   NORTH CENTRAL IOWA

CITY           SKY/WX    TMP DP  RH WIND       PRES   REMARKS
CLARION *      CLOUDY    27  27 100 N12       29.78F WCI  16
ESTHERVILLE    CLOUDY    18  17  96 N15       29.83F FOG     WCI   4
6HR MIN TEMP:  17; 6HR MAX TEMP:  19;

FORT DODGE *   LGT SNOW  25  23  92 N12       29.78F FOG     WCI  14
MASON CITY     CLOUDY    26  24  92 N9        29.81F WCI  17
6HR MIN TEMP:  26; 6HR MAX TEMP:  29;

FOREST CITY *  CLOUDY    27  27 100 N6        29.80S WCI  20
WEBSTER CITY * CLOUDY    27  27 100 N13       29.74F FOG     WCI  16
IOWA FALLS *   CLOUDY    30  30  98 NW7       29.79F FOG     WCI  23
$$

IAZ007>011-017>019-026>030-037>042-050>054-066-200700-
   NORTHEAST IOWA

CITY           SKY/WX    TMP DP  RH WIND       PRES   REMARKS
CEDAR RAPIDS   CLOUDY    33  33 100 SW7       29.80R FOG     WCI  27
6HR MIN TEMP:  33; 6HR MAX TEMP:  44; 6HR PCP:  0.01;

CHARLES CITY * CLOUDY    30  30 100 N10       29.77F FOG     WCI  21
CLINTON *      RAIN      38  38 100 MISG        N/A  FOG
DECORAH *      CLOUDY    34  34 100 N5        29.76S FOG     WCI  30
DUBUQUE        CLOUDY    34  34 100 SW3       29.78S FOG
6HR MIN TEMP:  34; 6HR MAX TEMP:  38; 6HR PCP:  0.11;

MONTICELLO *   CLOUDY    34  34 100 W6        29.80R FOG     WCI  29
OELWEIN *      FOG       34  34 100 W6        29.77F VSB<1/4 WCI  29
WATERLOO       CLOUDY    31  31 100 N7        29.76F FOG     WCI  24
6HR MIN TEMP:  31; 6HR MAX TEMP:  35;

$$

IAZ064-065-067-068-078-200700-
   EAST CENTRAL IOWA

CITY           SKY/WX    TMP DP  RH WIND       PRES   REMARKS
DAVENPORT      LGT RAIN  40  38  93 W7        29.82R FOG
6HR MIN TEMP:  40; 6HR MAX TEMP:  59; 6HR PCP:  0.19;

IOWA CITY      CLOUDY    36  36 100 W7        29.84S WCI  30
6HR MIN TEMP:  36; 6HR MAX TEMP:  42; 6HR PCP:  0.06;

MT. PLEASANT * RAIN      36  36 100 NW3       29.85R
MUSCATINE *    LGT RAIN  37  36  93 W6        29.84R WCI  33
QUAD CITIES    LGT RAIN  41  40  96 W6        29.82R FOG
6HR MIN TEMP:  41; 6HR MAX TEMP:  60; 6HR PCP:  0.30;

$$

IAZ062-063-075>077-085>089-095>099-200700-
   SOUTHEAST IOWA

CITY           SKY/WX    TMP DP  RH WIND       PRES   REMARKS
BURLINGTON     TSTM      40  38  93 NW3       29.83R FOG
6HR MIN TEMP:  39; 6HR MAX TEMP:  60; 6HR PCP:  0.99;

FAIRFIELD *    CLOUDY    34  34 100 W5        29.83S FOG     WCI  30
FORT MADISON * LGT RAIN  37  37 100 NW7       29.85R WCI  32
KEOKUK *       LGT RAIN  41  39  93 N7        29.82S
OSKALOOSA *    CLOUDY    31  31  99 N5        29.82F FOG     WCI  26
OTTUMWA        MIX PCPN  32  30  92 NW3       29.82F FOG
6HR MIN TEMP:  32; 6HR MAX TEMP:  38; 6HR PCP:  0.02;

WASHINGTON *   CLOUDY    34  34 100 W9        29.85R FOG     WCI  26
$$

ABBREVIATIONS USED IN REMARKS
   TC - TEMPERATURES IN CELSIUS
  WCI - WIND CHILL INDEX
   HX - HEAT INDEX
  VSB - VISIBILITY
$$





USA.gov is the U.S. government's official web portal to all federal, state and local government web resources and services.